STARLINK-35246

Last updated on Mon Oct 20 2025 00:02:05 GMT+0000 (Coordinated Universal Time)

1 65660U 25211J 25292.25002315 -.02391612 00000+0 -57661-1 0 9993 2 65660 97.6037 334.4140 0001742 88.4286 295.4427 15.44667566 5778

Satellite not in orbit

STARLINK-35246